Weather History for KSFF - March, 2014

Change the Weather History Date:

Saturday, March 1, 2014

  Actual Average Record
Temperature  
Mean Temperature 18 °F 37 °F  
Max Temperature 22 °F 46 °F 55 °F (2005)
Min Temperature 14 °F 27 °F 14 °F (2014)
Degree Days  
Heating Degree Days 47 28  
Month to date heating degree days 47 28  
Since 1 July heating degree days 4726 4599  
Cooling Degree Days 0 0  
Month to date cooling degree days 0 0  
Year to date cooling degree days 0 0  
Moisture  
Dew Point 4 °F    
Average Humidity 58    
Maximum Humidity 73    
Minimum Humidity 43    
Precipitation  
Precipitation 0.02 in 0.04 in 0.27 in (2011)
Month to date precipitation 0.02 0.04  
Year to date precipitation 2.66 3.37  
Sea Level Pressure  
Sea Level Pressure 29.97 in    
Wind  
Wind Speed 13 mph (NE)    
Max Wind Speed 30 mph    
Max Gust Speed 44 mph    
Visibility 7 miles    
Events Snow    
T = Trace of Precipitation, MM = Missing Value Source: NWS Daily Summary

Daily Weather History Graph

Daily Weather History Graph

Search for Another Location

Airport or City:

Trip Planner

Search our weather history database for the weather conditions in past years. The results will help you decide how hot, cold, wet, or windy it might be!

Date:

Astronomy

Mar. 01, 2014 Rise Set
Actual Time 6:29 AM PST 5:34 PM PST
Civil Twilight 5:58 AM PST 6:05 PM PST
Nautical Twilight 5:23 AM PST 6:40 PM PST
Astronomical Twilight 4:47 AM PST 7:16 PM PST
Moon 6:22 AM PST (3/1) 6:33 PM PST (3/1)
Length of Visible Light 12h 06m
Length of Day
11h 04m
New Moon, 0% of the Moon is Illuminated
Mar 1
New Moon
Mar 8
First Quarter
Mar 16
Full
Mar 23
Last Quarter
Mar 30
New

Hourly Weather History & Observations

Time (PST) Temp. Windchill Dew Point Humidity Pressure Visibility Wind Dir Wind Speed Gust Speed Precip Events Conditions
12:53 AM 19.9 °F 2.2 °F 3.0 °F 48% 29.83 in 10.0 mi ENE 26.5 mph 43.7 mph N/A   Overcast
1:53 AM 19.0 °F 0.6 °F 1.9 °F 47% 29.84 in 10.0 mi ENE 27.6 mph 34.5 mph N/A   Overcast
2:53 AM 17.1 °F -1.7 °F -0.0 °F 47% 29.85 in 10.0 mi ENE 26.5 mph 34.5 mph N/A   Overcast
3:53 AM 16.0 °F 0.1 °F -0.9 °F 47% 29.87 in 10.0 mi NE 17.3 mph 29.9 mph N/A   Overcast
4:53 AM 16.0 °F 0.1 °F -0.9 °F 47% 29.88 in 10.0 mi NE 17.3 mph 32.2 mph N/A   Overcast
5:53 AM 14.0 °F -3.9 °F -2.9 °F 47% 29.90 in 10.0 mi ENE 20.7 mph 31.1 mph N/A   Overcast
6:53 AM 14.0 °F -2.0 °F -4.0 °F 45% 29.92 in 10.0 mi NE 16.1 mph 34.5 mph N/A   Overcast
7:53 AM 14.0 °F -0.8 °F -2.9 °F 47% 29.95 in 10.0 mi ENE 13.8 mph 31.1 mph N/A   Overcast
8:53 AM 15.1 °F 1.1 °F -2.9 °F 45% 29.98 in 10.0 mi NE 12.7 mph 27.6 mph N/A   Overcast
9:53 AM 16.0 °F 5.3 °F -2.0 °F 45% 29.99 in 10.0 mi NE 8.1 mph 26.5 mph N/A   Overcast
10:53 AM 17.1 °F 2.5 °F -2.0 °F 43% 30.01 in 10.0 mi NE 15.0 mph 21.9 mph N/A   Overcast
11:53 AM 17.1 °F 3.6 °F -2.0 °F 43% 30.03 in 10.0 mi NE 12.7 mph 18.4 mph N/A   Overcast
12:53 PM 17.1 °F 1.5 °F -0.9 °F 45% 30.01 in 10.0 mi ENE 17.3 mph 23.0 mph N/A   Overcast
1:53 PM 18.0 °F 7.7 °F 1.0 °F 48% 30.02 in 10.0 mi NE 8.1 mph - N/A   Overcast
2:53 PM 18.0 °F 6.9 °F 1.9 °F 50% 30.03 in 10.0 mi NE 9.2 mph 20.7 mph N/A   Overcast
3:33 PM 16.0 °F 0.6 °F 6.1 °F 65% 29.94 in 2.5 mi ENE 16.1 mph - 0.00 in Snow Light Snow
3:53 PM 16.0 °F 1.7 °F 5.0 °F 62% 30.04 in 2.5 mi ENE 13.8 mph 21.9 mph 0.00 in   Haze
4:00 PM 17.1 °F 4.3 °F 5.0 °F 59% 29.95 in 10.0 mi ENE 11.5 mph - N/A   Overcast
4:53 PM 17.1 °F 3.0 °F 3.9 °F 56% 30.03 in 10.0 mi ENE 13.8 mph - N/A   Overcast
5:51 PM 15.8 °F 1.4 °F 6.8 °F 68% 29.94 in 2.5 mi ENE 13.8 mph - 0.00 in Snow Light Snow
5:53 PM 16.0 °F 6.3 °F 6.1 °F 65% 30.04 in 2.5 mi NE 6.9 mph 18.4 mph 0.00 in Snow Light Snow
6:53 PM 16.0 °F 6.3 °F 8.1 °F 71% 30.05 in 2.5 mi ENE 6.9 mph - 0.00 in Snow Light Snow
7:00 PM 15.1 °F 5.2 °F 9.0 °F 77% 29.96 in 1.0 mi NE 6.9 mph - 0.00 in Snow Light Snow
7:50 PM 15.8 °F 7.2 °F 8.6 °F 73% 29.94 in 2.5 mi East 5.8 mph - 0.01 in Snow Light Snow
7:53 PM 15.1 °F 5.2 °F 9.0 °F 77% 30.04 in 2.5 mi East 6.9 mph - 0.01 in Snow Light Snow
8:02 PM 15.1 °F 7.7 °F 9.0 °F 77% 29.94 in 3.0 mi East 4.6 mph - 0.00 in Snow Light Snow
8:53 PM 16.0 °F 10.4 °F 9.0 °F 74% 30.03 in 9.0 mi Variable 3.5 mph - 0.00 in   Overcast
9:08 PM 16.0 °F 7.4 °F 9.0 °F 74% 29.93 in 1.8 mi Variable 5.8 mph - 0.00 in Snow Light Snow
9:21 PM 16.0 °F 10.4 °F 9.0 °F 74% 29.93 in 2.5 mi ENE 3.5 mph - 0.00 in Snow Light Snow
9:29 PM 16.0 °F - 9.0 °F 74% 29.93 in 4.0 mi Calm Calm - 0.00 in Snow Light Snow
9:53 PM 16.0 °F - 9.0 °F 74% 30.03 in 9.0 mi Calm Calm - 0.00 in   Overcast
10:53 PM 15.1 °F 9.4 °F 8.1 °F 74% 30.03 in 8.0 mi NNW 3.5 mph - 0.00 in   Overcast
11:53 PM 15.1 °F - 9.0 °F 77% 30.01 in 5.0 mi Calm Calm - 0.01 in Snow Light Snow